User: anonymous   Login
Location: Unspecified
(0.0000°N, 0.0000°E)
Time: 20:53:15
(UTC+00:00)
Language:

STSS DEMO 2 (USA 209) - Orbit

View from above orbital plane
View from above orbital plane
View from above satellite
View from above satellite

Ground track
Ground track

The orbit data is extracted from the following two-line orbital elements,

1 35938U 09052B   16233.81997276 0.00000000  00000-0  00000-0 0    01
2 35938  57.9916 116.0552 0012152   6.9531 353.0468 12.79302015    01
Epoch (UTC): 20 August 2016 19:40:45
Eccentricity: 0.0012152
inclination: 57.9916°
perigee height: 1335 km
apogee height: 1353 km
right ascension of ascending node: 116.0552°
argument of perigee: 6.9531°
revolutions per day: 12.79302015
mean anomaly at epoch: 353.0468°
orbit number at epoch: 0

The dashed part of the orbit path shows where the satellite is in the earth's shadow,  

DLR